Find Starlink 31449

NORAD ID: 58966 Int'l Des: 2024-031 Owner: SPXS Country: US Constellation: starlink operational
LEOCIRCULAR

現在のビュー

3D地球を読み込み中...

About Starlink 31449

Starlink 31449 (NORAD 58966) is a starlink constellation satellite (v2 mini) launched Feb 15, 2024 by SPXS of US. It operates in LEO, CIRCULAR orbit with a mass of 730.00 kg.

Starlink 31449について

説明を読み込み中...

次回通過

Passes for default location (London). Set your location on the main map for personalized predictions.

高度履歴

Loading altitude history...

軌道要素

1 58966U 24031B 26160.88738372 .00002947 00000-0 11158-3 0 9996
2 58966 53.1577 228.1246 0001159 85.3200 274.7933 15.30198194130654
Epoch: Jun 9, 2026 • Age: 15 hours

現在のステータス

高度 475.4 km
速度 7.63 km/s
衛星直下点 19.81°N, 50.36°W
打ち上げ日 Feb 15, 2024
運用期間 2.3 years
タイプ internet

技術仕様

分類 Payload
質量 730.00 kg
乾燥質量 700.00 kg
総質量 730.00 kg
長さ 0.30 m
直径 4.10 m
スパン 29.00 m
形状 Box + pan
製造者 SPXS
バスタイプ Starlink V2M
フェーズステータス In Orbit
所有者/国 SPXS/US

Most Searched